Regional Weather Roundup
Issued by NWS Newport/Morehead, NC

Current Version | Previous Version | Graphics & Text | Print | Product List | Glossary Off
Versions: 1 2 3 4 5 6 7 8 9 10 11 12 13 14 15 16 17 18 19 20 21 22 23 24 25 26 27 28 29 30 31 32 33 34 35 36 37 38 39 40 41 42 43 44 45 46 47 48 49 50

257
ASUS42 KMHX 092213
RWRMHX
WEATHER ROUNDUP FOR EASTERN NORTH CAROLINA
NATIONAL WEATHER SERVICE NEWPORT/MOREHEAD CITY NC
500 PM EST TUE FEB 09 2016

NOTE: "FAIR" INDICATES FEW OR NO CLOUDS BELOW 12,000 FEET
WITH NO SIGNIFICANT WEATHER AND/OR OBSTRUCTIONS TO VISIBILITY

NCZ015>017-031-032-045>047-102-103-092300-
NORTH COAST

CITY           SKY/WX    TMP DP  RH WIND       PRES   REMARKS
EDENTON        LGT RAIN  42  35  78 W10G26    29.66R
ELIZABETH CITY CLOUDY    42  33  70 SW13      29.63R
KITTY HAWK     CLOUDY    44  31  60 W10G18    29.63R
MANTEO         CLOUDY    45  32  61 NW12      29.64R

$$

NCZ045>047-081-094-103-104-092300-
CENTRAL COAST

CITY           SKY/WX    TMP DP  RH WIND       PRES   REMARKS
FRISCO         CLOUDY    46  35  65 W9G16     29.65R
SWANQUARTER      N/A     46 N/A N/A NW2G18    29.62S

$$

NCZ095-097-098-100-101-092300-
SOUTHERN COAST

CITY           SKY/WX    TMP DP  RH WIND       PRES   REMARKS
BEAUFORT       PTCLDY    46  29  51 W14       29.69R
CEDAR ISLAND     N/A     46 N/A N/A W9G26     29.71R
JACKSONVILLE   CLOUDY    44  24  45 W10G21    29.70R
PINEY ISLAND   PTCLDY   N/A N/A N/A W17G26    29.67R
WILMINGTON     CLOUDY    45  25  45 W18G25    29.73R


$$

NCZ011>013-027>030-043-044-078>080-089-090>093-098-092300-
COASTAL PLAIN

CITY           SKY/WX    TMP DP  RH WIND       PRES   REMARKS
AHOSKIE        CLOUDY    42  27  56 CALM      29.64R
CLINTON        PTCLDY    42  25  50 W8G16     29.72R
ELIZABETHTOWN  CLOUDY    42  25  50 SW9G17    29.73R
GOLDSBORO      CLOUDY    43  21  42 W15G25    29.67R
GREENVILLE     CLOUDY    43  27  52 W12G18    29.70R
HAVELOCK       MOCLDY    45  26  47 W15G21    29.69R
KENANSVILLE    CLOUDY    43  23  45 W9        29.71R
KINSTON        PTCLDY    43  25  49 W8G16     29.69R
NEW BERN       MOCLDY    44  24  45 W10G18    29.69R
RICHLANDS      CLOUDY    45  21  39 SW10G16   29.70R
ROCKY MOUNT    CLOUDY    41  25  53 W8G20     29.68R
WASHINGTON     CLOUDY    44  26  48 W15G22    29.66R
WHITEVILLE     CLOUDY    42  24  48 W10G18    29.75R

$$

AMZ130-135-150-152-154-156-158-170-250-252-270-ANZ085-086-088-633-658-670-092300-
MARINE OBSERVATIONS

STATION/POSITION TIME  TEMP    WIND        PRES    WAVE   SWELL
                       AIR SEA DIR/SP/G            HT/PER HT/PER
                 (UTC) (F)     (DEG/KT/KT) (MB)    (FT/S) (FT/S)
CHESAPEAKE LIGHT 2200   44     280/ 14/ 16 1002.8
64 E VA BEACH    2150   47 50  240/ 16/ 21 1001.7   10/15   8/15
DUCK             2100   45     260/ 17/ 20 1002.0
2 E DUCK         2111      45                N/A     7/14   7/14
OREGON INLET     2100   46 45  240/ 15/ 19 1002.6
13E OREGON INLT  2200      47                N/A     9/14   8/14
HATTERAS CG      2100   45 52  270/ 11/ 14 1003.2
DIAMOND BUOY     2150   50 74  270/ 23/ 31 1003.3   10/15   8/15
CAPE LOOKOUT     NOT AVBL
BEAUFORT LAB     2100   47 47  250/  8/ 16 1003.4
30 SE NEW RVR IN 2108   48 60              1004.8
30 SE NEW RVR IN 2125      60                N/A     9/ 8   3/14
27 SE WRIGHTSVLE 2108   47 60  270/ 23/ 31 1004.7
5 SE WRIGHTSVLE  NOT AVBL
225 S CAPE HAT   2150   58 69  270/ 31/ 39   N/A    18/10  16/10
41 SE CHARLESTON 2150   48 65  260/ 25/ 33 1008.7    9/ 7   2/15

$$




USA.gov is the U.S. government's official web portal to all federal, state and local government web resources and services.